EW5742 Weather Reports


Display with metric or nautical units.
time (UTC)temp
F
wind
direction
speed
MPH
gust
MPH
rain 1hr
in
rain 24hr
in
rain mn
in
humidity
%
barometer
mb
20260510061558 62 26 0.0 0.0 0.00 0.00 0.00 94 1011.7
20260510060058 62 25 0.0 0.0 0.00 0.00 0.00 93 1011.7
20260510054514 63 25 0.0 0.0 0.00 0.00 0.00 94 1011.7
20260510053028 63 25 0.0 0.0 0.00 0.00 0.00 94 1011.8
20260510050055 64 26 0.0 0.0 0.00 0.00 0.00 93 1011.9
20260510044550 64 25 0.0 0.0 0.00 0.00 0.00 93 1012.1
20260510043050 64 25 0.0 0.0 0.00 0.00 0.00 93 1012.1
20260510041547 64 26 0.0 0.0 0.00 0.00 0.00 93 1012.0
20260510040027 64 26 0.0 0.0 0.00 0.00 0.00 93 1012.0
20260510034527 65 26 0.0 0.0 0.00 0.00 0.00 93 1012.0
20260510033137 65 25 0.0 0.0 0.00 0.00 0.00 93 1012.0
20260510031602 65 26 0.0 0.0 0.00 0.00 0.00 93 1012.0
20260510030028 65 26 0.0 0.0 0.00 0.00 0.00 92 1011.9
20260510024528 66 26 0.0 0.0 0.00 0.00 0.00 92 1011.9
20260510023045 66 26 0.0 0.0 0.00 0.00 0.00 92 1011.9
20260510021547 66 26 0.0 0.0 0.00 0.00 0.00 92 1011.8
20260510020044 66 25 0.0 0.0 0.00 0.00 0.00 91 1011.6
20260510014545 67 26 0.0 0.0 0.00 0.00 0.00 91 1011.5
20260510013018 67 26 0.0 0.0 0.00 0.00 0.00 91 1011.4
20260510011513 68 26 0.0 0.0 0.00 0.00 0.00 90 1011.2
20260510010058 68 26 0.0 2.0 0.00 0.00 0.00 90 1011.2
20260510004559 68 276 0.0 1.0 0.00 0.00 0.00 90 1011.2
20260510003100 69 105 0.0 2.0 0.00 0.00 0.00 90 1010.9
20260510001548 69 314 0.0 1.0 0.00 0.00 0.00 89 1010.8
20260510000050 69 169 0.0 2.0 0.00 0.00 0.00 89 1010.7
20260509234548 69 147 0.0 2.0 0.00 0.00 0.00 89 1010.5
20260509233036 69 184 0.0 2.0 0.00 0.00 0.00 88 1010.5
20260509231648 69 195 0.0 2.0 0.00 0.00 0.00 88 1010.4
20260509230013 69 155 2.0 5.0 0.00 0.00 0.00 87 1010.5
20260509224527 69 169 0.0 4.0 0.00 0.00 0.00 87 1010.5
20260509223136 70 169 0.0 4.0 0.00 0.00 0.00 87 1010.5
20260509221538 70 131 2.0 5.0 0.00 0.00 0.00 86 1010.6
20260509220051 69 139 1.0 5.0 0.00 0.00 0.00 86 1010.6
20260509214524 69 259 0.0 5.0 0.00 0.00 0.00 86 1010.6
20260509213027 69 129 1.0 5.0 0.00 0.00 0.00 86 1010.5
20260509211546 69 132 2.0 6.0 0.00 0.00 0.00 85 1010.3
20260509210051 70 158 3.0 7.0 0.00 0.00 0.00 84 1010.4
20260509204521 70 173 2.0 6.0 0.00 0.00 0.00 83 1010.5
20260509203135 71 132 0.0 5.0 0.00 0.00 0.00 83 1010.6
20260509201521 70 199 1.0 4.0 0.00 0.00 0.00 82 1010.6
20260509200018 70 135 1.0 3.0 0.00 0.00 0.00 83 1010.6
20260509194506 71 152 0.0 4.0 0.00 0.00 0.00 82 1010.7
20260509193008 71 196 2.0 6.0 0.00 0.00 0.00 79 1010.8
20260509191550 71 122 3.0 8.0 0.00 0.00 0.00 78 1011.0
20260509190055 71 189 4.0 10.0 0.00 0.00 0.00 78 1011.2
20260509184546 72 190 2.0 11.0 0.00 0.00 0.00 76 1011.1
20260509183039 73 271 4.0 10.0 0.00 0.00 0.00 74 1011.3
20260509181532 74 153 6.0 12.0 0.00 0.00 0.00 73 1011.5
20260509180100 75 236 4.0 11.0 0.00 0.00 0.00 72 1011.5
20260509174514 75 143 4.0 8.0 0.00 0.00 0.00 71 1011.7
20260509173010 75 108 4.0 11.0 0.00 0.00 0.00 70 1011.8
20260509171536 76 148 3.0 11.0 0.00 0.00 0.00 68 1012.0
20260509170005 77 148 5.0 11.0 0.00 0.00 0.00 67 1012.3
20260509164558 74 155 1.0 6.0 0.00 0.00 0.00 74 1012.3
20260509163038 73 103 1.0 4.0 0.00 0.00 0.00 74 1012.4
20260509161538 72 356 0.0 2.0 0.00 0.00 0.00 77 1012.6
20260509160011 71 72 0.0 2.0 0.00 0.00 0.00 78 1012.7
20260509154516 71 325 1.0 3.0 0.00 0.00 0.00 77 1013.1
20260509153056 68 330 0.0 1.0 0.00 0.00 0.00 83 1013.4
20260509151554 67 308 0.0 4.0 0.00 0.00 0.00 84 1013.6
20260509150042 67 15 0.0 1.0 0.00 0.00 0.00 84 1014.0
20260509144538 67 321 0.0 2.0 0.00 0.00 0.00 84 1013.9
20260509143039 66 340 0.0 1.0 0.00 0.00 0.00 86 1013.7
20260509141544 66 349 0.0 0.0 0.00 0.00 0.00 89 1013.6
20260509140028 65 349 0.0 0.0 0.00 0.00 0.00 90 1013.6
20260509134531 64 18 0.0 1.0 0.00 0.00 0.00 89 1013.8
20260509133056 64 323 0.0 0.0 0.00 0.00 0.00 90 1014.0
20260509131543 63 323 0.0 0.0 0.00 0.00 0.00 91 1013.9
20260509130033 62 323 0.0 0.0 0.00 0.00 0.00 92 1013.7
20260509124524 61 312 0.0 2.0 0.00 0.00 0.00 93 1013.8
20260509123020 60 319 0.0 1.0 0.00 0.00 0.00 93 1013.6
20260509121517 60 350 0.0 0.0 0.00 0.00 0.00 93 1013.7
20260509120032 59 350 0.0 1.0 0.00 0.00 0.00 93 1014.2
20260509114533 59 350 0.0 0.0 0.00 0.00 0.00 94 1013.6
20260509113048 58 350 0.0 0.0 0.00 0.00 0.00 93 1013.5
20260509111502 57 350 0.0 0.0 0.00 0.00 0.00 94 1013.3
20260509110100 56 350 0.0 0.0 0.00 0.00 0.00 93 1013.1
20260509104523 56 350 0.0 0.0 0.00 0.00 0.00 93 1013.3
20260509103019 56 350 0.0 0.0 0.00 0.00 0.00 93 1013.0
20260509101600 56 350 0.0 0.0 0.00 0.00 0.00 93 1012.9
20260509101507 56 350 0.0 0.0 0.00 0.00 0.00 93 1012.9
20260509100005 56 350 0.0 1.0 0.00 0.00 0.00 93 1012.9
20260509094526 56 350 0.0 0.0 0.00 0.00 0.00 93 1013.2
20260509093019 56 350 0.0 0.0 0.00 0.00 0.00 93 1013.3
20260509091512 56 350 0.0 0.0 0.00 0.00 0.00 93 1013.4
20260509090013 56 349 0.0 0.0 0.00 0.00 0.00 93 1013.2
20260509084514 56 350 0.0 0.0 0.00 0.00 0.00 93 1013.5
20260509083016 56 350 0.0 0.0 0.00 0.00 0.00 93 1013.4
20260509081518 56 350 0.0 0.0 0.00 0.00 0.00 92 1013.6
20260509080009 56 350 0.0 0.0 0.00 0.00 0.00 92 1013.7
20260509074508 56 350 0.0 0.0 0.00 0.00 0.00 92 1013.7
20260509073010 57 350 0.0 0.0 0.00 0.00 0.00 92 1014.0
20260509071601 57 350 0.0 1.0 0.00 0.00 0.00 92 1014.4
20260509070054 57 350 0.0 1.0 0.00 0.00 0.00 92 1014.5
20260509063105 56 245 0.0 1.0 0.00 0.00 0.00 92 1014.3